Location: Fredericksburg
(30.2750°N, 98.8720°W)
Time: 10:06:42
(UTC-05:00)

Daily predictions for brighter satellites

Satellite Brightness Start Highest point End
(mag) Time Altitude Azimuth Time Altitude Azimuth Time Altitude Azimuth
Meteosat 1 Rocket2 4.3 20:55:27 10° WSW 21:00:50 54° SSE 21:09:11 10° E
Cosmos 2181 Rocket 4.5 20:55:19 10° N 21:01:25 44° E 21:07:26 10° SSE
CZ-4C R/B 3.7 21:00:08 10° NW 21:07:22 55° WSW 21:15:02 10° S
Cosmos 1709 Rocket 4.0 21:06:07 10° S 21:12:13 88° W 21:18:24 10° N
NOSS 2-2 (E) 3.7 21:09:06 10° S 21:12:58 46° ESE 21:17:10 10° NE
Cosmos 1867 4.3 21:09:52 10° NW 21:15:10 54° WSW 21:20:25 10° S
CZ-4B DEB 4.0 21:13:27 10° S 21:16:35 43° W 21:19:44 10° NNW
Cosmos 2074 Rocket 4.4 21:13:17 10° SSE 21:19:06 41° E 21:24:56 10° NNE
GPS 2-14 Rocket1 4.4 21:19:42 10° SW 21:22:26 19° S 21:24:38 12° SE
Cosmos 909 Rocket 4.1 21:18:20 10° SSW 21:24:31 69° ESE 21:31:38 10° NNE
Cosmos 1869 Rocket 4.4 21:20:33 10° SSW 21:24:52 55° W 21:29:11 10° N
ERS-1 Rocket 3.6 21:22:06 11° SE 21:26:26 37° ENE 21:31:03 10° N
H-2A R/B 3.6 21:24:05 13° ESE 21:26:30 20° ENE 21:29:41 10° NNE
Cosmos 1356 Rocket 3.8 21:22:48 10° SSE 21:26:44 42° E 21:30:45 10° NNE
Resurs 01 Rocket 4.2 21:28:17 10° SW 21:31:33 21° W 21:34:51 10° NW
ALOS 2.6 21:27:33 10° S 21:32:11 66° W 21:36:50 10° NNW
GPS 2-05 Rocket1 3.8 21:30:03 10° SSW 21:33:18 30° SSE 21:35:06 19° ESE
Cosmos 389 Rocket 3.6 21:31:14 10° NNW 21:34:32 42° W 21:37:50 10° SSW
ATLAS 5 CENTAUR R/B 3.6 21:38:11 10° N 21:43:18 27° NE 21:46:55 17° E
Cosmos 2278 Rocket 3.5 21:43:31 18° ESE 21:43:57 19° E 21:47:46 10° ENE
OPS 6432 4.4 21:40:27 10° SSW 21:44:25 88° ESE 21:47:40 10° NNE
Cosmos 1844 4.4 21:41:09 10° SSE 21:46:09 33° ESE 21:51:14 10° NE
CZ-4 DEB 2.7 21:44:23 17° S 21:46:43 80° WSW 21:49:54 10° NNW
Abrixas rocket 3.9 21:45:35 10° NNW 21:48:27 24° NE 21:49:51 19° ENE
OAO 3 Copernicus 4.4 21:46:01 10° WNW 21:51:03 64° SSW 21:53:49 26° SE
Cosmos 1943 4.1 21:46:43 10° NNW 21:52:06 47° WSW 21:57:26 10° S
Meteor 2-3 Rocket 4.3 21:46:35 10° SSW 21:52:08 58° W 21:57:40 10° N
Okean 1-7 3.7 21:49:07 10° NNW 21:53:17 53° W 21:57:29 10° S
Cosmos 1825 4.2 21:54:31 15° ENE 21:54:31 15° ENE 21:55:52 10° NE
USA 234 3.5 21:48:31 10° ENE 21:54:38 42° SE 22:00:42 10° SSW
Cosmos 1340 Rocket 3.9 21:52:00 10° SSW 21:55:46 44° W 21:59:36 10° N
Cosmos 2056 Rocket 3.4 21:51:01 10° SSW 21:56:13 86° ESE 22:01:23 10° NNE
Cosmos 1844 Rocket 2.7 21:51:44 10° S 21:57:17 59° ESE 22:02:50 10° NNE
Cosmos 1371 Rocket 4.5 21:52:54 10° SSW 21:58:11 64° WNW 22:03:27 10° N
Cosmos 1939 Rocket 2.8 21:57:31 32° SE 21:59:05 60° ENE 22:02:54 10° N
Cosmos 1674 Rocket 4.2 21:56:46 10° NNE 22:00:56 38° E 22:02:00 33° ESE
Cosmos 1782 3.2 22:04:14 10° N 22:08:05 43° E 22:08:35 41° ESE
Atlas Centaur 2 0.9 22:07:33 10° W 22:11:06 89° S 22:12:00 49° E
Coronas F rocket 3.4 22:11:39 13° SW 22:13:28 26° W 22:15:46 10° NNW
YAOGAN 6 3.9 22:14:37 25° NE 22:14:37 25° NE 22:16:55 10° NNE
Cosmos 1408 4.1 22:15:26 23° NE 22:15:26 23° NE 22:17:23 10° NNE
SL-27 R/B 3.6 22:13:29 10° N 22:16:20 31° NE 22:16:20 31° NE
MetOp-A 4.4 22:16:21 37° ESE 22:17:57 49° ENE 22:23:05 10° N
Cosmos 2154 Rocket 3.9 22:17:46 25° SSE 22:21:30 67° E 22:27:38 10° NNE
COS B Rocket 3.3 22:20:28 10° N 22:24:24 59° ENE 22:24:24 59° ENE
CENTAUR R/B 3.1 22:18:32 10° NNW 22:26:37 81° ENE 22:30:41 35° SE
Cosmos 1606 3.4 22:26:20 10° N 22:29:28 42° NE 22:29:28 42° NE
Cosmos 1908 Rocket 3.4 22:31:02 57° S 22:31:54 87° E 22:36:18 10° N
FALCON 9 R/B 4.2 21:49:33 10° WNW 22:31:56 75° SSW 22:37:44 34° SE
Envisat 3.4 22:34:09 32° SSW 22:36:22 60° W 22:41:24 10° NNW
STPSAT 2 (USA 217) 4.5 22:35:05 45° SSW 22:36:25 86° WNW 22:40:54 10° NNE
H-2A R/B 3.7 22:36:42 21° ENE 22:36:42 21° ENE 22:40:23 10° NNE
Cosmos 1378 Rocket 3.9 22:41:39 10° N 22:45:11 52° NE 22:45:11 52° NE
deb Centaur AC-2 4.1 22:43:33 10° W 22:49:03 89° S 22:49:10 85° ESE
SPOT 1/Viking Rocket 3.4 22:51:06 68° E 22:51:16 69° ENE 22:56:27 10° N
ERBS 4.1 22:48:00 10° NNW 22:50:03 30° N 22:50:03 30° N
Delta 168 4.3 22:42:09 10° WSW 22:51:40 60° S 22:52:55 53° SE
CZ-3C R/B 3.2 22:33:09 10° WSW 22:55:05 37° S 22:55:50 37° S
Cosmos 1452 Rocket 4.0 22:56:45 26° SW 22:59:32 56° WNW 23:04:42 10° N
SPOT 5 3.7 22:58:36 41° SW 22:59:49 49° W 23:04:58 10° NNW
Cosmos 407 Rocket 3.4 22:56:43 10° NNW 23:02:00 84° WSW 23:02:05 83° SW
H-2A R/B 3.8 23:01:13 23° WSW 23:02:19 25° W 23:05:54 10° NW
COSMOS 2406 4.0 23:06:47 10° NW 23:12:09 43° WSW 23:13:05 40° SW
Terra 3.3 23:16:52 29° NNE 23:16:52 29° NNE 23:19:36 10° N
Cosmos 2218 Rocket 4.0 23:17:25 70° ENE 23:17:25 70° ENE 23:23:30 10° N
Cosmos 1140 Rocket 4.4 23:14:00 10° N 23:17:37 38° NNE 23:17:37 38° NNE
Okean 2 Rocket 4.1 23:20:05 44° NW 23:20:05 44° NW 23:23:26 10° N
ARGOS 3.3 23:20:05 70° WNW 23:20:05 70° WNW 23:25:09 10° NNW
SL-08 R/B 4.5 23:23:48 75° ENE 23:23:48 75° ENE 23:29:55 10° N
BREEZE-M DEB (TANK) 4.2 23:20:02 10° NW 23:26:27 32° NNE 23:26:27 32° NNE
Cosmos 2278 Rocket 3.1 23:25:14 29° WSW 23:27:36 44° WNW 23:33:01 10° N
ATLAS 5 CENTAUR R/B 3.0 23:22:16 10° NW 23:28:11 46° WSW 23:28:29 46° WSW
USA 234 4.3 23:31:27 10° NNE 23:37:31 43° NW 23:43:35 10° WSW
Cosmos 1833 Rocket 4.4 23:35:54 10° N 23:39:00 22° NE 23:39:00 22° NE
Timation 2 Rocket 4.4 23:45:46 10° NNW 23:50:18 52° N 23:50:18 52° N
Cosmos 2082 Rocket 3.5 23:47:52 10° N 23:51:28 32° NNE 23:51:28 32° NNE
